[[{"header":{"parameterUnit":"m.s-1","parameterCategory":1,"la1":30.2991,"la2":30.254,"lo1":-89.0895,"lo2":-89.0444,"dy":0.0017,"dx":0.0017,"nx":28,"ny":28,"refTime":"2024-05-24T09:00:00:Z","depth":0,"parameterNumber":2,"parameterNumberName":"U-component_of_WINDS"},"data":[0,0,0,0,0,0,0,0,0,0,0,0,0,0,0,0,0,0,0,0,0,0,0,0,0,0,0,0,0,0,0,0,0,0,0,0,0,0,0,0,0,0,0,0,0,0,0,0,0,0,0,0,0,0,0,0,0,0,0.1697,0.1697,0,0.1735,0.1735,0.1736,0.1733,0.1732,0.1732,0.1731,0.1771,0.1773,0.1774,0,0,0,0,0,0,0,0,0,0,0,0,0,0.1622,0.1623,0.1697,0.1697,0.1698,0.1735,0.1735,0.1736,0.1733,0.1732,0.1732,0.1731,0.177,0.1772,0.1774,0,0,0,0,0,0,0,0,0,0,0,0,0,0.1657,0.1624,0.1697,0.1701,0.1701,0.1735,0.1735,0.1736,0.1733,0.1732,0.1731,0.1731,0.177,0.1772,0.1775,0.1807,0,0,0.1782,0.1783,0,0,0,0,0,0,0,0,0.1655,0.1659,0.17,0.1701,0.1701,0.1728,0.1724,0.176,0.1733,0.1721,0.1731,0.173,0.1758,0.1761,0.177,0.1808,0.181,0.1782,0.1783,0.1785,0.1785,0,0,0,0,0,0,0,0.1652,0.1658,0.1712,0.17,0.1701,0.1701,0.1705,0.173,0.1744,0.1722,0.1722,0.1727,0.1758,0.1768,0.1771,0.1811,0.1782,0.1784,0.1786,0.1787,0.1877,0.1878,0,0,0,0,0,0,0.1649,0.1656,0.1711,0.1713,0.1675,0.1703,0.1707,0.1721,0.1743,0.1746,0.1727,0.1726,0.1764,0.1768,0.1772,0.1811,0.1784,0.1787,0.1788,0.1876,0.1877,0.1878,0,0,0,0,0,0,0.1647,0.1654,0.1709,0.1684,0.1691,0.1705,0.172,0.1722,0.1732,0.1747,0.175,0.1735,0.1763,0.1769,0.1798,0.1812,0.1788,0.179,0.1875,0.1876,0.1878,0.1888,0,0,0,0,0,0,0.1645,0.1653,0.1665,0.1685,0.1693,0.1734,0.1721,0.1723,0.1736,0.1735,0.1755,0.1758,0.1763,0.1794,0.18,0.1815,0.1792,0.1873,0.1875,0.1877,0.1887,0.189,0.1893,0,0,0,0,0,0.1642,0.1667,0.1666,0.1673,0.1708,0.1735,0.1739,0.1745,0.1737,0.1749,0.1759,0.1757,0.181,0.1797,0.1804,0.182,0.1873,0.1875,0.1877,0.1885,0.1889,0.1893,0,0,0,0,0,0,0.1649,0.167,0.1669,0.17,0.1716,0.1734,0.175,0.1749,0.1768,0.1766,0.1773,0.1777,0.1806,0.1816,0.1802,0.1852,0.184,0.1844,0.1844,0.1848,0.1851,0.1848,0.1794,0,0,0,0,0,0.1655,0.1675,0.1691,0.1718,0.1725,0.1736,0.1748,0.1751,0.1768,0.1774,0.1787,0.1803,0.1823,0.1836,0.1856,0.1888,0.1892,0.1902,0.1905,0.1908,0.1911,0.1928,0.1933,0.1885,0.1885,0.1885,0,0,0.1666,0.1679,0.1691,0.1719,0.1732,0.1752,0.1742,0.1764,0.1779,0.1778,0.1806,0.1815,0.1834,0.1864,0.1879,0.1873,0.1925,0.191,0.1912,0.1914,0.1931,0.1935,0.1939,0.1887,0.1886,0.1886,0,0,0.1696,0.1709,0.1732,0.1744,0.1763,0.177,0.1776,0.1794,0.18,0.1828,0.1827,0.1846,0.1881,0.1893,0.1905,0.194,0.1938,0.1946,0.1961,0.1978,0.1982,0.1986,0.1998,0.2002,0.1949,0.1949,0.1949,0,0.1708,0.1738,0.1744,0.1766,0.1778,0.1777,0.1801,0.1813,0.1837,0.1845,0.1839,0.1882,0.1895,0.1928,0.1937,0.1946,0.1952,0.1944,0.1981,0.1985,0.1988,0.1999,0.2004,0.195,0.195,0.195,0.195,0,0.1751,0.1772,0.1789,0.1812,0.1826,0.1848,0.1857,0.1871,0.1873,0.1881,0.1909,0.1924,0.1946,0.1955,0.1957,0.1989,0.1985,0.198,0.1968,0.1993,0.2004,0.2009,0.1951,0.1951,0.195,0.195,0,0,0.1787,0.1812,0.1818,0.1829,0.1849,0.1866,0.1888,0.191,0.1921,0.1938,0.1957,0.1986,0.1982,0.1994,0.1998,0.2013,0.2039,0.2006,0.2007,0.2011,0.2075,0.2078,0.2083,0.2038,0.2039,0.204,0.2073,0,0.1819,0.1859,0.1864,0.1899,0.1919,0.1919,0.1938,0.1953,0.1961,0.1979,0.1987,0.2008,0.2001,0.2008,0.2023,0.2033,0.2052,0.2031,0.2056,0.2057,0.2051,0.2089,0.2092,0.2123,0.2077,0.2078,0.2079,0,0.1862,0.1879,0.1916,0.1934,0.1942,0.196,0.198,0.1997,0.2013,0.2018,0.2032,0.2034,0.2057,0.2045,0.2077,0.2062,0.2073,0.2079,0.2081,0.2083,0.2069,0.2092,0.2132,0.2137,0.2086,0.2085,0.2084,0,0.1883,0.1916,0.1943,0.1951,0.1973,0.1985,0.1995,0.201,0.2023,0.204,0.2048,0.2069,0.208,0.2095,0.2102,0.2093,0.2134,0.2122,0.2138,0.2138,0.2147,0.2146,0.2189,0.2154,0.2154,0.2154,0.2154,0,0.1918,0.1941,0.1953,0.1969,0.1994,0.2,0.2025,0.2034,0.2048,0.2066,0.2067,0.2084,0.2093,0.2111,0.2117,0.2142,0.2147,0.2152,0.2153,0.2151,0.2151,0.2158,0.2156,0.2155,0.2155,0.2155,0.2155,0,0.1947,0.1955,0.1984,0.2002,0.2007,0.2025,0.204,0.2055,0.2063,0.2086,0.2091,0.2104,0.2125,0.2134,0.216,0.2164,0.2193,0.2193,0.2187,0.2188,0.2203,0.2201,0.2252,0.2259,0.222,0.222,0.2221,0,0.1968,0.1985,0.2005,0.2017,0.2027,0.2046,0.2059,0.2066,0.2079,0.2099,0.2112,0.2133,0.2151,0.2185,0.2196,0.2216,0.2216,0.2233,0.2219,0.2217,0.2216,0.2214,0.2216,0.2235,0.2235,0.2236,0.2236,0,0.2005,0.2009,0.2027,0.2046,0.2061,0.2077,0.2093,0.2102,0.2112,0.2126,0.2148,0.2161,0.2188,0.2209,0.223,0.2239,0.2239,0.224,0.2245,0.2243,0.2239,0.2241,0.2194,0.2239,0.2239,0.2238,0.2238,0.2238,0.203,0.2046,0.2062,0.2082,0.2094,0.2108,0.2124,0.2133,0.2152,0.2174,0.2177,0.22,0.2216,0.2243,0.2254,0.2272,0.2268,0.2275,0.2277,0.2278,0.2279,0.2236,0.2276,0.2276,0.2276,0.2276,0.2276,0,0.2067,0.2077,0.2096,0.2117,0.2133,0.2131,0.2148,0.2162,0.2182,0.2197,0.2214,0.2239,0.2259,0.2272,0.2292,0.2304,0.2305,0.2309,0.2308,0.231,0.2282,0.2275,0.2309,0.2309,0.2309,0.2309,0.2309,0.2309,0.2088,0.2113,0.2119,0.215,0.2161,0.2183,0.2193,0.2206,0.2218,0.2246,0.2262,0.2271,0.2285,0.2306,0.2325,0.2328,0.2335,0.234,0.2343,0.2316,0.2313,0.2309,0.2303,0.2342,0.2342,0.237,0.237,0.2371]},{"header":{"parameterUnit":"m.s-1","parameterCategory":1,"la1":30.2991,"la2":30.254,"lo1":-89.0895,"lo2":-89.0444,"dy":0.0017,"dx":0.0017,"nx":28,"ny":28,"refTime":"2024-05-24T09:00:00:Z","depth":0,"parameterNumber":3,"parameterNumberName":"V-component_of_WINDS"},"data":[0,0,0,0,0,0,0,0,0,0,0,0,0,0,0,0,0,0,0,0,0,0,0,0,0,0,0,0,0,0,0,0,0,0,0,0,0,0,0,0,0,0,0,0,0,0,0,0,0,0,0,0,0,0,0,0,0,0,3.477,3.477,0,3.4791,3.4791,3.4791,3.4796,3.4796,3.4796,3.4796,3.4815,3.4815,3.4816,0,0,0,0,0,0,0,0,0,0,0,0,0,3.4733,3.4734,3.477,3.477,3.4771,3.4791,3.4791,3.4791,3.4796,3.4796,3.4796,3.4796,3.4814,3.4815,3.4816,0,0,0,0,0,0,0,0,0,0,0,0,0,3.4751,3.4734,3.477,3.4776,3.4776,3.4791,3.4791,3.4791,3.4796,3.4796,3.4796,3.4796,3.4814,3.4815,3.4816,3.4826,0,0,3.4819,3.4819,0,0,0,0,0,0,0,0,3.475,3.4752,3.4774,3.4775,3.4776,3.4791,3.4785,3.4803,3.4796,3.4789,3.4796,3.4796,3.4807,3.4808,3.4812,3.4827,3.4828,3.4819,3.482,3.482,3.482,0,0,0,0,0,0,0,3.4749,3.4751,3.4778,3.4775,3.4776,3.4776,3.4779,3.4788,3.4798,3.4789,3.479,3.4792,3.4807,3.4812,3.4813,3.4828,3.4819,3.482,3.482,3.4821,3.4851,3.4852,0,0,0,0,0,0,3.4747,3.475,3.4778,3.4779,3.4762,3.4777,3.478,3.4786,3.4798,3.48,3.4792,3.4792,3.481,3.4812,3.4814,3.4826,3.482,3.4821,3.4821,3.4851,3.4852,3.4852,0,0,0,0,0,0,3.4746,3.4749,3.4777,3.4765,3.4768,3.4778,3.4785,3.4787,3.4791,3.4801,3.4802,3.4795,3.481,3.4812,3.4823,3.4827,3.4821,3.4822,3.4851,3.4851,3.4852,3.4851,0,0,0,0,0,0,3.4745,3.4749,3.4753,3.4765,3.4769,3.4786,3.4785,3.4787,3.4793,3.4793,3.4804,3.4805,3.481,3.4822,3.4824,3.4828,3.4823,3.4851,3.4851,3.4852,3.4851,3.4852,3.4852,0,0,0,0,0,3.4743,3.4751,3.4753,3.4756,3.4774,3.4786,3.4789,3.4795,3.4793,3.4797,3.4804,3.4805,3.4826,3.4823,3.4825,3.483,3.485,3.4851,3.4852,3.4851,3.4851,3.4852,0,0,0,0,0,0,3.4739,3.4753,3.4755,3.4767,3.4776,3.4787,3.4793,3.4795,3.4803,3.4803,3.4809,3.4812,3.4822,3.4827,3.4823,3.484,3.4838,3.4839,3.4837,3.4837,3.4838,3.4837,3.4824,0,0,0,0,0,3.4739,3.4748,3.476,3.477,3.4774,3.4783,3.4788,3.4792,3.4801,3.4804,3.4811,3.4819,3.4827,3.4833,3.4841,3.4852,3.4854,3.4856,3.4857,3.4857,3.4858,3.4865,3.4866,3.4854,3.4854,3.4854,0,0,3.474,3.4749,3.4754,3.4769,3.4776,3.4785,3.4785,3.4795,3.4801,3.4805,3.4816,3.4821,3.483,3.4842,3.4847,3.4846,3.4862,3.4858,3.4858,3.4859,3.4865,3.4866,3.4867,3.4854,3.4854,3.4854,0,0,3.4746,3.4754,3.4763,3.477,3.4781,3.4787,3.4789,3.4801,3.4805,3.4816,3.4819,3.4827,3.4841,3.4848,3.4853,3.4863,3.4864,3.4865,3.4868,3.4874,3.4875,3.4876,3.488,3.4881,3.4866,3.4866,3.4866,0,3.4745,3.476,3.4767,3.4777,3.4783,3.4788,3.4797,3.4803,3.4816,3.482,3.482,3.4838,3.4845,3.4857,3.486,3.4864,3.4866,3.4864,3.4875,3.4876,3.4876,3.488,3.4881,3.4866,3.4866,3.4866,3.4866,0,3.4759,3.4769,3.4775,3.4788,3.4795,3.4804,3.4812,3.4819,3.4822,3.4828,3.4839,3.4847,3.4857,3.4861,3.4864,3.4874,3.4873,3.4874,3.4872,3.4878,3.4881,3.4882,3.4866,3.4866,3.4866,3.4866,0,0,3.4762,3.478,3.4782,3.4789,3.4802,3.4809,3.4818,3.4829,3.4835,3.4843,3.4851,3.4864,3.4864,3.487,3.4874,3.4879,3.4887,3.4879,3.4879,3.488,3.4899,3.4899,3.4901,3.4888,3.4888,3.4889,3.4898,0,3.477,3.4788,3.4795,3.4809,3.4819,3.4824,3.4832,3.484,3.4846,3.4854,3.486,3.4869,3.4869,3.4873,3.4878,3.4885,3.4891,3.4884,3.4895,3.4896,3.4893,3.4902,3.4902,3.4911,3.49,3.49,3.49,0,3.4781,3.4792,3.4807,3.482,3.4824,3.4831,3.4842,3.485,3.486,3.4864,3.4871,3.4875,3.4884,3.4882,3.4895,3.4891,3.4895,3.4899,3.49,3.4901,3.4898,3.4904,3.4914,3.4915,3.4902,3.4902,3.4902,0,3.4783,3.48,3.4812,3.4817,3.4832,3.4837,3.4843,3.4853,3.4859,3.4869,3.4873,3.4883,3.4888,3.4895,3.4902,3.4899,3.4914,3.4912,3.4918,3.4917,3.492,3.492,3.4932,3.4923,3.4923,3.4923,3.4923,0,3.4791,3.48,3.4813,3.482,3.4831,3.4839,3.4849,3.4855,3.4864,3.4872,3.4877,3.4884,3.4892,3.49,3.4905,3.4915,3.4917,3.4921,3.4922,3.492,3.492,3.4924,3.4923,3.4924,3.4924,3.4924,3.4924,0,3.4794,3.4803,3.4816,3.4829,3.4833,3.484,3.4851,3.4858,3.4865,3.4875,3.4878,3.4887,3.4897,3.4904,3.4917,3.492,3.4932,3.4933,3.4929,3.4929,3.4934,3.4934,3.4948,3.4951,3.4941,3.4941,3.4941,0,3.4799,3.4806,3.4821,3.4827,3.4834,3.4844,3.4851,3.4859,3.4865,3.4878,3.4883,3.4894,3.4903,3.4919,3.4926,3.4936,3.4937,3.4942,3.4939,3.4937,3.4938,3.4937,3.4938,3.4942,3.4942,3.4942,3.4942,0,3.4806,3.4811,3.4821,3.4833,3.4841,3.4851,3.486,3.4865,3.4874,3.4882,3.4893,3.49,3.4913,3.4924,3.4935,3.494,3.4943,3.4943,3.4945,3.4944,3.4941,3.4943,3.493,3.4943,3.4943,3.4943,3.4943,3.4943,3.4811,3.4818,3.483,3.4841,3.4849,3.4858,3.4866,3.4873,3.4883,3.4895,3.4899,3.4911,3.492,3.4935,3.4941,3.495,3.4949,3.4952,3.4952,3.4953,3.4953,3.494,3.4952,3.4952,3.4952,3.4952,3.4952,0,3.4819,3.4827,3.4837,3.4851,3.486,3.4863,3.4873,3.4881,3.4891,3.49,3.4909,3.4922,3.4932,3.4941,3.4952,3.4957,3.4959,3.496,3.4959,3.4961,3.4953,3.495,3.4958,3.4958,3.4958,3.4958,3.4958,3.4958,3.4824,3.4837,3.4843,3.4859,3.4867,3.4879,3.4885,3.4893,3.4901,3.4915,3.4924,3.493,3.4939,3.4951,3.496,3.4963,3.4966,3.4967,3.497,3.4962,3.4961,3.496,3.4958,3.4968,3.4968,3.4977,3.4977,3.4977]}]]